VE3GIF Weather Reports


time (UTC)temp
F
wind
direction
speed
knots
gust
knots
rain 1hr
in
rain 24hr
in
rain mn
in
humidity
%
barometer
mb
20260506091745 42 95 1.7 0.0 0.00 0.00 0.00 90 1008.2
20260506091245 42 81 0.9 0.0 0.00 0.00 0.00 90 1008.3
20260506090745 42 86 0.9 0.0 0.00 0.00 0.00 90 1008.3
20260506090245 42 48 0.0 0.0 0.00 0.00 0.00 90 1008.3
20260506085744 42 19 1.7 0.0 0.00 0.00 0.00 90 1008.4
20260506085244 42 93 0.0 0.0 0.00 0.00 0.00 90 1008.4
20260506084244 42 74 0.0 0.0 0.00 0.00 0.00 90 1008.3
20260506083743 42 101 0.9 0.0 0.00 0.00 0.00 90 1008.4
20260506083243 42 83 2.6 0.0 0.00 0.00 0.00 90 1008.2
20260506082743 42 96 0.9 0.0 0.00 0.00 0.00 89 1008.2
20260506082242 42 112 1.7 0.0 0.00 0.00 0.00 89 1008.4
20260506081742 42 82 0.9 0.0 0.00 0.00 0.00 89 1008.5
20260506081242 42 73 0.9 0.0 0.00 0.00 0.00 89 1008.2
20260506080741 43 62 1.7 0.0 0.00 0.00 0.00 89 1008.2
20260506080241 43 121 0.9 0.0 0.00 0.00 0.00 89 1007.8
20260506073240 44 78 1.7 0.0 0.00 0.00 0.00 89 1007.6
20260506072739 44 192 1.7 0.0 0.00 0.00 0.00 89 1007.6
20260506072239 44 130 1.7 0.0 0.00 0.00 0.00 89 1007.6
20260506071238 44 132 4.3 0.0 0.00 0.00 0.00 89 1007.7
20260506070738 44 146 1.7 0.0 0.00 0.00 0.00 89 1007.6
20260506070238 44 132 4.3 0.0 0.00 0.00 0.00 89 1007.7
20260506062236 46 114 6.1 0.0 0.00 0.00 0.00 89 1008.1
20260506061735 46 98 0.0 0.0 0.00 0.00 0.00 89 1008.3
20260506061235 46 104 0.9 0.0 0.00 0.00 0.00 89 1008.2
20260506060735 47 111 0.9 0.0 0.00 0.00 0.00 88 1008.4
20260506060234 47 75 0.0 0.0 0.00 0.00 0.00 88 1008.4
20260506051232 47 138 0.0 0.0 0.00 0.00 0.00 88 1009.0
20260506050231 46 138 0.9 0.0 0.00 0.00 0.00 88 1008.7
20260506044730 46 138 0.0 0.0 0.00 0.00 0.00 87 1008.7
20260506044230 46 138 0.0 0.0 0.00 0.00 0.00 87 1008.8
20260506043730 46 138 0.9 0.0 0.00 0.00 0.00 87 1008.8
20260506043229 46 138 0.0 0.0 0.00 0.00 0.00 87 1008.7
20260506042729 46 138 0.0 0.0 0.00 0.00 0.00 87 1008.7
20260506042229 45 138 0.0 0.0 0.00 0.00 0.00 87 1008.4
20260506041728 45 138 0.0 0.0 0.00 0.00 0.00 87 1008.4
20260506041228 45 138 0.0 0.0 0.00 0.00 0.00 87 1008.5
20260506040728 45 138 0.0 0.0 0.00 0.00 0.00 87 1008.3
20260506040228 45 138 0.0 0.0 0.00 0.00 0.00 86 1008.3
20260506035727 45 138 0.0 0.0 0.00 0.00 0.00 86 1008.2
20260506034727 45 138 0.9 0.0 0.00 0.00 0.00 86 1008.3
20260506034226 45 138 0.0 0.0 0.00 0.00 0.00 86 1008.3
20260506033726 45 138 0.0 0.0 0.00 0.00 0.00 86 1008.3
20260506033226 45 133 1.7 0.0 0.00 0.00 0.00 86 1008.4
20260506032726 46 128 0.9 0.0 0.00 0.00 0.00 86 1008.3
20260506032225 46 138 0.9 0.0 0.00 0.00 0.00 86 1008.3
20260506031725 46 138 0.9 0.0 0.00 0.00 0.00 86 1008.2
20260506031225 46 136 1.7 0.0 0.00 0.00 0.00 86 1008.1
20260506030724 46 132 0.0 0.0 0.00 0.00 0.00 86 1008.1
20260506030224 46 132 0.9 0.0 0.00 0.00 0.00 86 1008.0
20260506025724 46 136 1.7 0.0 0.00 0.00 0.00 86 1008.1
20260506025224 45 136 1.7 0.0 0.00 0.00 0.00 86 1008.2
20260506024723 45 130 0.9 0.0 0.00 0.00 0.00 85 1008.3
20260506024223 45 130 0.0 0.0 0.00 0.00 0.00 85 1008.2
20260506023723 45 130 0.9 0.0 0.00 0.00 0.00 85 1008.3
20260506023222 45 136 0.9 0.0 0.00 0.00 0.00 85 1008.4
20260506022722 45 111 0.9 0.0 0.00 0.00 0.00 85 1008.4
20260506022222 45 140 3.5 0.0 0.00 0.00 0.00 85 1008.5
20260506021722 45 125 2.6 0.0 0.00 0.00 0.00 85 1008.6
20260506021221 46 149 1.7 0.0 0.00 0.00 0.00 85 1008.8
20260506020721 46 123 1.7 0.0 0.00 0.00 0.00 85 1008.9
20260506020221 45 140 0.9 0.0 0.00 0.00 0.00 84 1008.7
20260506015720 45 149 0.9 0.0 0.00 0.00 0.00 84 1008.6
20260506014720 46 140 0.9 0.0 0.00 0.00 0.00 84 1008.3
20260506014220 46 138 0.9 0.0 0.00 0.00 0.00 84 1008.3
20260506013219 46 149 0.9 0.0 0.00 0.00 0.00 83 1008.1
20260506012719 46 144 0.0 0.0 0.00 0.00 0.00 82 1008.1
20260506012219 46 140 1.7 0.0 0.00 0.00 0.00 82 1007.9
20260506011218 46 134 1.7 0.0 0.00 0.00 0.00 81 1008.1
20260506010718 46 135 1.7 0.0 0.00 0.00 0.00 81 1008.0
20260506005717 47 148 3.5 0.0 0.00 0.00 0.00 79 1008.0
20260506005217 47 153 2.6 0.0 0.00 0.00 0.00 78 1007.9
20260506004716 47 184 0.9 0.0 0.00 0.00 0.00 77 1007.7
20260506003716 49 140 2.6 0.0 0.00 0.00 0.00 74 1007.7
20260506003216 50 152 0.9 0.0 0.00 0.00 0.00 73 1007.5
20260506002715 50 155 2.6 0.0 0.00 0.00 0.00 72 1007.5
20260506002215 51 159 1.7 0.0 0.00 0.00 0.00 71 1007.3
20260506001214 51 38 0.9 0.0 0.00 0.00 0.00 71 1007.1
20260506000214 51 34 1.7 0.0 0.00 0.00 0.00 70 1007.1
20260505235213 51 322 1.7 0.0 0.00 0.00 0.00 70 1006.9
20260505233212 51 360 0.9 0.0 0.00 0.00 0.00 72 1006.7
20260505232712 52 341 1.7 0.0 0.00 0.00 0.00 72 1006.5
20260505232212 52 297 2.6 0.0 0.00 0.00 0.00 72 1006.4
20260505230711 52 314 2.6 0.0 0.00 0.00 0.00 69 1006.6
20260505230211 52 313 1.7 0.0 0.00 0.00 0.00 68 1006.7
20260505225710 52 340 1.7 0.0 0.00 0.00 0.00 68 1006.8
20260505225210 52 294 1.7 0.0 0.00 0.00 0.00 68 1006.8
20260505224710 52 312 2.6 0.0 0.00 0.00 0.00 69 1006.8
20260505224209 52 304 2.6 0.0 0.00 0.00 0.00 69 1006.7
20260505223709 52 298 2.6 0.0 0.00 0.00 0.00 69 1006.8
20260505223209 52 296 1.7 0.0 0.00 0.00 0.00 70 1006.8
20260505222709 52 304 2.6 0.0 0.00 0.00 0.00 71 1006.9
20260505222208 52 292 1.7 0.0 0.00 0.00 0.00 73 1006.8
20260505221708 52 189 4.3 0.0 0.00 0.00 0.00 73 1006.7
20260505221208 52 306 1.7 0.0 0.00 0.00 0.00 74 1006.5
20260505220707 51 261 2.6 0.0 0.00 0.00 0.00 76 1006.6
20260505220207 51 299 3.5 0.0 0.00 0.00 0.00 77 1006.5
20260505215707 51 290 3.5 0.0 0.00 0.00 0.00 79 1006.4
20260505215207 51 284 3.5 0.0 0.00 0.00 0.00 80 1006.4
20260505214706 51 337 1.7 0.0 0.00 0.00 0.00 81 1006.3
20260505214206 51 294 3.5 0.0 0.00 0.00 0.00 81 1006.4
20260505213205 51 301 1.7 0.0 0.00 0.00 0.00 82 1006.4
20260505212705 51 299 1.7 0.0 0.00 0.00 0.00 82 1006.4
20260505212205 50 284 2.6 0.0 0.00 0.00 0.00 81 1006.2
20260505211705 50 328 0.9 0.0 0.00 0.00 0.00 81 1006.3
20260505211204 50 284 0.9 0.0 0.00 0.00 0.00 81 1006.2
20260505210704 50 281 1.7 0.0 0.00 0.00 0.00 81 1006.3
20260505210204 50 295 0.9 0.0 0.00 0.00 0.00 81 1006.3
20260505205203 50 5 1.7 0.0 0.00 0.00 0.00 80 1006.2
20260505204703 51 329 2.6 0.0 0.00 0.00 0.00 79 1006.3
20260505204203 51 341 2.6 0.0 0.00 0.00 0.00 79 1006.3
20260505202702 51 302 4.3 0.0 0.00 0.00 0.00 76 1005.9
20260505202202 51 336 3.5 0.0 0.00 0.00 0.00 75 1005.8
20260505201701 51 355 1.7 0.0 0.00 0.00 0.00 75 1005.8
20260505201201 52 350 1.7 0.0 0.00 0.00 0.00 74 1006.0
20260505200701 52 325 3.5 0.0 0.00 0.00 0.00 73 1005.9
20260505200200 53 332 1.7 0.0 0.00 0.00 0.00 70 1006.1
20260505195700 54 281 0.9 0.0 0.00 0.00 0.00 67 1005.9
20260505195200 55 346 3.5 0.0 0.00 0.00 0.00 63 1005.7
20260505194659 56 276 7.0 0.0 0.00 0.00 0.00 59 1005.4
20260505193659 59 339 1.7 0.0 0.00 0.00 0.00 56 1005.1
20260505193159 59 239 1.7 0.0 0.00 0.00 0.00 54 1005.0
20260505192158 60 278 5.2 0.0 0.00 0.00 0.00 52 1004.6
20260505191658 60 244 3.5 0.0 0.00 0.00 0.00 51 1004.5
20260505190657 61 337 2.6 0.0 0.00 0.00 0.00 54 1004.5
20260505190157 60 270 1.7 0.0 0.00 0.00 0.00 55 1004.3
20260505185657 60 275 2.6 0.0 0.00 0.00 0.00 55 1004.4
20260505185156 60 289 3.5 0.0 0.00 0.00 0.00 55 1004.3
20260505184656 60 263 5.2 0.0 0.00 0.00 0.00 55 1004.4
20260505184156 60 290 7.0 0.0 0.00 0.00 0.00 56 1004.3
20260505183656 61 313 5.2 0.0 0.00 0.00 0.00 55 1004.1
20260505183155 62 290 3.5 0.0 0.00 0.00 0.00 53 1004.1
20260505182155 62 198 7.0 0.0 0.00 0.00 0.00 52 1003.9
20260505180154 63 253 4.3 0.0 0.00 0.00 0.00 56 1003.6
20260505175653 63 246 7.0 0.0 0.00 0.00 0.00 56 1003.5
20260505174152 63 227 0.9 0.0 0.00 0.00 0.00 60 1003.2
20260505173152 62 282 5.2 0.0 0.00 0.00 0.00 63 1003.0
20260505172151 62 279 5.2 0.0 0.00 0.00 0.00 64 1002.8
20260505171151 62 291 3.5 0.0 0.00 0.00 0.00 65 1002.7
20260505170150 62 265 1.7 0.0 0.00 0.00 0.00 66 1002.7
20260505165650 61 276 3.5 0.0 0.00 0.00 0.00 66 1002.6
20260505165150 61 290 0.9 0.0 0.00 0.00 0.00 66 1002.5
20260505164149 61 280 1.7 0.0 0.00 0.00 0.00 67 1002.8
20260505163649 61 299 1.7 0.0 0.00 0.00 0.00 68 1002.9
20260505163148 60 259 2.6 0.0 0.00 0.00 0.00 68 1002.9
20260505162648 60 223 3.5 0.0 0.00 0.00 0.00 69 1002.9
20260505162148 60 304 3.5 0.0 0.00 0.00 0.00 69 1002.8
20260505161648 60 218 1.7 0.0 0.00 0.00 0.00 69 1002.8
20260505161147 60 248 7.0 0.0 0.00 0.00 0.00 70 1002.8
20260505160647 60 307 7.0 0.0 0.00 0.00 0.00 71 1002.7
20260505160147 60 257 4.3 0.0 0.00 0.00 0.00 70 1002.6
20260505153145 61 294 0.0 0.0 0.00 0.00 0.00 69 1002.4
20260505152645 61 272 3.5 0.0 0.00 0.00 0.00 69 1002.3
20260505152144 60 307 7.0 0.0 0.00 0.00 0.00 69 1002.1
20260505150644 60 266 2.6 0.0 0.00 0.00 0.00 67 1001.6
20260505150143 60 294 6.1 0.0 0.00 0.00 0.00 67 1001.5
20260505140640 64 190 4.3 0.0 0.00 0.00 0.00 71 1000.6
20260505140140 64 254 2.6 0.0 0.00 0.00 0.00 71 1000.5
20260505130136 61 201 1.7 0.0 0.00 0.00 0.00 72 999.5
20260505124636 62 138 3.5 0.0 0.00 0.00 0.00 72 999.4
20260505124135 62 185 2.6 0.0 0.00 0.00 0.00 72 999.3
20260505123635 62 199 2.6 0.0 0.00 0.00 0.00 73 998.8
20260505123135 62 219 3.5 0.0 0.00 0.00 0.00 73 998.8
20260505122634 61 237 1.7 0.0 0.00 0.00 0.00 73 999.0
20260505121633 61 236 3.5 0.0 0.00 0.00 0.00 74 999.0
20260505121133 61 198 2.6 0.0 0.00 0.00 0.00 74 999.2
20260505115632 60 199 2.6 0.0 0.00 0.00 0.00 75 999.1
20260505114131 60 213 7.8 0.0 0.00 0.00 0.00 75 999.0
20260505112130 60 206 3.5 0.0 0.00 0.00 0.00 75 999.1
20260505111630 60 192 0.9 0.0 0.00 0.00 0.00 76 999.0
20260505111130 60 243 2.6 0.0 0.00 0.00 0.00 76 998.8
20260505110629 60 198 1.7 0.0 0.00 0.00 0.00 76 998.5
20260505110129 60 254 1.7 0.0 0.00 0.00 0.00 76 998.4
20260505102127 59 200 3.5 0.0 0.00 0.00 0.00 75 998.0
20260505101626 59 154 2.6 0.0 0.00 0.00 0.00 75 998.1
20260505101126 59 192 6.1 0.0 0.00 0.00 0.00 75 998.0
20260505100626 60 148 2.6 0.0 0.00 0.00 0.00 75 997.8
20260505100126 60 188 4.3 0.0 0.00 0.00 0.00 75 997.8
20260505095625 60 165 4.3 0.0 0.00 0.00 0.00 75 997.9
20260505095125 60 180 3.5 0.0 0.00 0.00 0.00 75 997.9
20260505094625 60 230 2.6 0.0 0.00 0.00 0.00 75 997.9
20260505094124 60 173 2.6 0.0 0.00 0.00 0.00 75 997.9
20260505093624 60 199 7.0 0.0 0.00 0.00 0.00 75 997.9
20260505093124 60 182 5.2 0.0 0.00 0.00 0.00 74 997.9
20260505092624 60 195 2.6 0.0 0.00 0.00 0.00 74 997.9
20260505092123 60 204 2.6 0.0 0.00 0.00 0.00 74 997.8